sat.trackr.live / text

‹ back to catalog

STARLINK-11269 [DTC]

NORAD 60995 · 2024-158F

PAYLOAD ACTIVE UNKNOWN

§ Identity

Operator
Country
US
Launch date
2024-09-05
Launch site
AFETR
Launch vehicle
Mass (kg)
RCS (m²)

Purposes: comms

External: N2YO · Heavens-Above · Gunter

§ Orbital elements

Epoch: 2026-05-25T01:03:11.740032Z

Period
91.74 min
Inclination
53.1600°
Eccentricity
0.0001188
Mean motion
15.69713535 rev/d
Perigee alt
358.9 km
Apogee alt
360.5 km
Semi-major
6,737.9 km
B*
6.9781e-6
RAAN
265.1020°
Arg perigee
83.4296°
Mean anomaly
276.6857°
Rev number
9,957

§ Raw data

STARLINK-11269 [DTC]1 60995U 24158F   26145.04388588  .00000257  00000+0  69781-5 0  99902 60995  53.1600 265.1020 0001188  83.4296 276.6857 15.69713535 99578

JSON: /api/v1/satellites/60995 · /tle

For live sub-satellite position, see the globe view (requires WebGL).

§ Visibility from observer

Set your observer location to see the next 7 days of passes ≥ 10°. The values pass through the URL so the page stays shareable.

No JS? Fill the form by hand. The geolocation button needs JavaScript.